,,,PA_Meas_PMT16A,,PR_Meas_QMR101_102,,RH_Meas_QMH101,,SR_Meas_QMS101,,TA_Meas_QMH101,,GenWind,,GenWind,
date,time,status,PA,status,PR,status,RH,status,SR,status,TA,status,DirAvg,status,SpdAvg,
2011-04-01, 00:00:04,VALID,999.77,VALID,0,VALID,91.8377,VALID,0,VALID,23.7207,VALID,200,VALID,0,
2011-04-01, 00:01:04,VALID,999.736,VALID,0,VALID,91.853,VALID,0,VALID,23.7207,VALID,200,VALID,0,
2011-04-01, 00:02:04,VALID,999.698,VALID,0,VALID,91.8606,VALID,0,VALID,23.7402,VALID,200,VALID,0,
2011-04-01, 00:03:04,VALID,999.684,VALID,0,VALID,91.8606,VALID,0,VALID,23.6994,VALID,200,VALID,0,
2011-04-01, 00:04:04,VALID,999.676,VALID,0,VALID,91.8454,VALID,0,VALID,23.6994,VALID,200,VALID,0,
2011-04-01, 00:05:04,VALID,999.652,VALID,0,VALID,91.8606,VALID,0,VALID,23.7207,VALID,195,VALID,0,
2011-04-01, 00:06:04,VALID,999.634,VALID,0,VALID,91.853,VALID,0,VALID,23.7384,VALID,181,VALID,0,
2011-04-01, 00:07:04,VALID,999.568,VALID,0,VALID,91.8148,VALID,0,VALID,23.7384,VALID,159,VALID,0,
2011-04-01, 00:08:04,VALID,999.539,VALID,0,VALID,91.7996,VALID,0,VALID,23.7775,VALID,159,VALID,0,
2011-04-01, 00:09:04,VALID,999.559,VALID,0,VALID,91.7462,VALID,0,VALID,23.797,VALID,159,VALID,0,
2011-04-01, 00:10:04,VALID,999.546,VALID,0,VALID,91.6928,VALID,0,VALID,23.8165,VALID,159,VALID,0,
2011-04-01, 00:11:04,VALID,999.538,VALID,0,VALID,91.6394,VALID,0,VALID,23.836,VALID,159,VALID,0,
2011-04-01, 00:12:04,VALID,999.53,VALID,0,VALID,91.6012,VALID,0,VALID,23.836,VALID,159,VALID,0,
2011-04-01, 00:13:04,VALID,999.533,VALID,0,VALID,91.5707,VALID,0,VALID,23.8555,VALID,159,VALID,0,
2011-04-01, 00:14:04,VALID,999.501,VALID,0,VALID,91.5173,VALID,0,VALID,23.8555,VALID,148,VALID,0.0398437,
2011-04-01, 00:15:04,VALID,999.504,VALID,0,VALID,91.4563,VALID,0,VALID,23.8768,VALID,96,VALID,0.405859,
2011-04-01, 00:16:04,VALID,999.472,VALID,0,VALID,91.4334,VALID,0,VALID,23.8768,VALID,96,VALID,0,
2011-04-01, 00:17:04,VALID,999.443,VALID,0,VALID,91.4257,VALID,0,VALID,23.875,VALID,96,VALID,0,
2011-04-01, 00:18:04,VALID,999.463,VALID,0,VALID,91.3952,VALID,0,VALID,23.8768,VALID,96,VALID,0,
2011-04-01, 00:19:04,VALID,999.441,VALID,0,VALID,91.3571,VALID,0,VALID,23.8768,VALID,96,VALID,0,
2011-04-01, 00:20:04,VALID,999.414,VALID,0,VALID,91.38,VALID,0,VALID,23.836,VALID,96,VALID,0,
2011-04-01, 00:21:04,VALID,999.436,VALID,0,VALID,91.3876,VALID,0,VALID,23.8165,VALID,96,VALID,0,
2011-04-01, 00:22:04,VALID,999.398,VALID,0,VALID,91.3876,VALID,0,VALID,23.8378,VALID,96,VALID,0,
2011-04-01, 00:23:04,VALID,999.375,VALID,0,VALID,91.3876,VALID,0,VALID,23.8183,VALID,96,VALID,0,
2011-04-01, 00:24:04,VALID,999.358,VALID,0,VALID,91.4181,VALID,0,VALID,23.8183,VALID,96,VALID,0,
2011-04-01, 00:25:04,VALID,999.355,VALID,0,VALID,91.4486,VALID,0,VALID,23.8183,VALID,96,VALID,0,
2011-04-01, 00:26:04,VALID,999.378,VALID,0,VALID,91.4715,VALID,0,VALID,23.7775,VALID,96,VALID,0,
2011-04-01, 00:27:04,VALID,999.338,VALID,0,VALID,91.4868,VALID,0,VALID,23.8183,VALID,96,VALID,0,
2011-04-01, 00:28:04,VALID,999.304,VALID,0,VALID,91.5326,VALID,0,VALID,23.8183,VALID,96,VALID,0,
2011-04-01, 00:29:04,VALID,999.304,VALID,0,VALID,91.5478,VALID,0,VALID,23.8378,VALID,96,VALID,0,
2011-04-01, 00:30:04,VALID,999.284,VALID,0,VALID,91.5478,VALID,0,VALID,23.8573,VALID,96,VALID,0,
2011-04-01, 00:31:04,VALID,999.279,VALID,0,VALID,91.5783,VALID,0,VALID,23.8573,VALID,96,VALID,0,
2011-04-01, 00:32:04,VALID,999.279,VALID,0,VALID,91.6088,VALID,0,VALID,23.8768,VALID,96,VALID,0,
2011-04-01, 00:33:04,VALID,999.246,VALID,0,VALID,91.5936,VALID,0,VALID,23.836,VALID,96,VALID,0,
2011-04-01, 00:34:04,VALID,999.274,VALID,0,VALID,91.5783,VALID,0,VALID,23.8573,VALID,96,VALID,0,
2011-04-01, 00:35:04,VALID,999.254,VALID,0,VALID,91.5783,VALID,0,VALID,23.8573,VALID,96,VALID,0,
2011-04-01, 00:36:04,VALID,999.226,VALID,0,VALID,91.5707,VALID,0,VALID,23.8573,VALID,96,VALID,0,
2011-04-01, 00:37:04,VALID,999.173,VALID,0,VALID,91.5631,VALID,0.112286,VALID,23.836,VALID,96,VALID,0,
2011-04-01, 00:38:04,VALID,999.194,VALID,0,VALID,91.5936,VALID,0,VALID,23.8378,VALID,96,VALID,0,
2011-04-01, 00:39:04,VALID,999.162,VALID,0,VALID,91.6165,VALID,0,VALID,23.8378,VALID,96,VALID,0,
2011-04-01, 00:40:04,VALID,999.131,VALID,0,VALID,91.6546,VALID,0,VALID,23.8378,VALID,96,VALID,0,
2011-04-01, 00:41:04,VALID,999.116,VALID,0,VALID,91.7004,VALID,0,VALID,23.8165,VALID,96,VALID,0,
2011-04-01, 00:42:04,VALID,999.054,VALID,0,VALID,91.7462,VALID,0,VALID,23.8183,VALID,96,VALID,0,
2011-04-01, 00:43:04,VALID,999.046,VALID,0,VALID,91.7614,VALID,0,VALID,23.8183,VALID,96,VALID,0,
2011-04-01, 00:44:04,VALID,999.067,VALID,0,VALID,91.7996,VALID,0,VALID,23.8183,VALID,96,VALID,0,
2011-04-01, 00:45:04,VALID,999.03,VALID,0,VALID,91.8377,VALID,0,VALID,23.8183,VALID,96,VALID,0,
2011-04-01, 00:46:04,VALID,999.028,VALID,0,VALID,91.8301,VALID,0,VALID,23.7793,VALID,96,VALID,0,
2011-04-01, 00:47:04,VALID,999.007,VALID,0,VALID,91.853,VALID,0,VALID,23.7793,VALID,96,VALID,0,
2011-04-01, 00:48:04,VALID,998.96,VALID,0,VALID,91.8683,VALID,0,VALID,23.7793,VALID,96,VALID,0,
2011-04-01, 00:49:04,VALID,998.943,VALID,0,VALID,91.8683,VALID,0,VALID,23.7579,VALID,96,VALID,0,
2011-04-01, 00:50:04,VALID,998.929,VALID,0,VALID,91.8377,VALID,0,VALID,23.7597,VALID,58,VALID,0.333984,
2011-04-01, 00:51:04,VALID,998.889,VALID,0,VALID,91.8835,VALID,0,VALID,23.7402,VALID,58,VALID,0.4625,
2011-04-01, 00:52:04,VALID,998.853,VALID,0,VALID,91.8683,VALID,0.112286,VALID,23.7402,VALID,58,VALID,0,
2011-04-01, 00:53:04,VALID,998.833,VALID,0,VALID,91.8911,VALID,0,VALID,23.6994,VALID,58,VALID,0.125781,
2011-04-01, 00:54:04,VALID,998.844,VALID,0,VALID,91.9293,VALID,0,VALID,23.6994,VALID,58,VALID,0,
2011-04-01, 00:55:04,VALID,998.817,VALID,0,VALID,91.9751,VALID,0,VALID,23.6994,VALID,58,VALID,0.600781,
2011-04-01, 00:56:04,VALID,998.799,VALID,0,VALID,92.0132,VALID,0,VALID,23.6994,VALID,58,VALID,0.562109,
2011-04-01, 00:57:04,VALID,998.769,VALID,0,VALID,92.0743,VALID,0,VALID,23.6994,VALID,58,VALID,0.665234,
2011-04-01, 00:58:04,VALID,998.758,VALID,0,VALID,92.1124,VALID,0,VALID,23.6994,VALID,64,VALID,0.722266,
2011-04-01, 00:59:04,VALID,998.742,VALID,0,VALID,92.1353,VALID,0,VALID,23.6994,VALID,64,VALID,0.675,
2011-04-01, 01:00:04,VALID,998.737,VALID,0,VALID,92.1734,VALID,0,VALID,23.7012,VALID,64,VALID,0.673828,
2011-04-01, 01:01:04,VALID,998.721,VALID,0,VALID,92.1963,VALID,0,VALID,23.6817,VALID,64,VALID,0.439844,
2011-04-01, 01:02:04,VALID,998.714,VALID,0,VALID,92.2268,VALID,0,VALID,23.6604,VALID,64,VALID,0.274219,
2011-04-01, 01:03:04,VALID,998.695,VALID,0,VALID,92.2192,VALID,0,VALID,23.6622,VALID,64,VALID,0.0820313,
2011-04-01, 01:04:04,VALID,998.694,VALID,0,VALID,92.2497,VALID,0,VALID,23.6427,VALID,64,VALID,0,
2011-04-01, 01:05:04,VALID,998.679,VALID,0,VALID,92.2803,VALID,0,VALID,23.6427,VALID,64,VALID,0,
2011-04-01, 01:06:04,VALID,998.688,VALID,0,VALID,92.3108,VALID,0,VALID,23.6232,VALID,64,VALID,0,
2011-04-01, 01:07:04,VALID,998.692,VALID,0,VALID,92.3184,VALID,0,VALID,23.6232,VALID,44,VALID,0.767187,
2011-04-01, 01:08:04,VALID,998.71,VALID,0,VALID,92.3794,VALID,0,VALID,23.5823,VALID,43,VALID,0.691406,
2011-04-01, 01:09:04,VALID,998.69,VALID,0,VALID,92.3947,VALID,0,VALID,23.5628,VALID,43,VALID,0.547656,
2011-04-01, 01:10:04,VALID,998.688,VALID,0,VALID,92.4176,VALID,0,VALID,23.5628,VALID,43,VALID,0.513672,
2011-04-01, 01:11:04,VALID,998.674,VALID,0,VALID,92.4328,VALID,0,VALID,23.5841,VALID,43,VALID,0.362891,
2011-04-01, 01:12:04,VALID,998.702,VALID,0,VALID,92.4863,VALID,0,VALID,23.5841,VALID,43,VALID,0.121875,
2011-04-01, 01:13:04,VALID,998.708,VALID,0,VALID,92.4863,VALID,0,VALID,23.5841,VALID,43,VALID,0,
2011-04-01, 01:14:04,VALID,998.695,VALID,0,VALID,92.5397,VALID,0,VALID,23.6036,VALID,43,VALID,0,
2011-04-01, 01:15:04,VALID,998.708,VALID,0,VALID,92.5702,VALID,0,VALID,23.5841,VALID,43,VALID,0,
2011-04-01, 01:16:04,VALID,998.7,VALID,0,VALID,92.5854,VALID,0,VALID,23.5841,VALID,43,VALID,0,
2011-04-01, 01:17:04,VALID,998.668,VALID,0,VALID,92.6007,VALID,0,VALID,23.5628,VALID,43,VALID,0.291406,
2011-04-01, 01:18:04,VALID,998.704,VALID,0,VALID,92.5931,VALID,0,VALID,23.5841,VALID,36,VALID,0.790625,
2011-04-01, 01:19:04,VALID,998.682,VALID,0,VALID,92.6312,VALID,0,VALID,23.5646,VALID,34,VALID,0.787891,
2011-04-01, 01:20:04,VALID,998.705,VALID,0,VALID,92.6388,VALID,0,VALID,23.5628,VALID,34,VALID,0.587891,
2011-04-01, 01:21:04,VALID,998.686,VALID,0,VALID,92.6617,VALID,0,VALID,23.5841,VALID,34,VALID,0.452344,
2011-04-01, 01:22:04,VALID,998.68,VALID,0,VALID,92.6846,VALID,0,VALID,23.5823,VALID,34,VALID,0.379297,
2011-04-01, 01:23:04,VALID,998.658,VALID,0,VALID,92.7075,VALID,0,VALID,23.6427,VALID,34,VALID,0,
2011-04-01, 01:24:04,VALID,998.662,VALID,0,VALID,92.7228,VALID,0,VALID,23.6214,VALID,34,VALID,0,
2011-04-01, 01:25:04,VALID,998.638,VALID,0,VALID,92.7609,VALID,0,VALID,23.6409,VALID,34,VALID,0,
2011-04-01, 01:26:04,VALID,998.661,VALID,0,VALID,92.738,VALID,0,VALID,23.6817,VALID,34,VALID,0,
2011-04-01, 01:27:04,VALID,998.633,VALID,0,VALID,92.738,VALID,0,VALID,23.6817,VALID,34,VALID,0,
2011-04-01, 01:28:04,VALID,998.61,VALID,0,VALID,92.7457,VALID,0,VALID,23.7012,VALID,34,VALID,0,
2011-04-01, 01:29:04,VALID,998.618,VALID,0,VALID,92.7762,VALID,0,VALID,23.6799,VALID,34,VALID,0,
2011-04-01, 01:30:04,VALID,998.628,VALID,0,VALID,92.7685,VALID,0,VALID,23.7207,VALID,34,VALID,0,
2011-04-01, 01:31:04,VALID,998.623,VALID,0,VALID,92.7762,VALID,0,VALID,23.7207,VALID,34,VALID,0,
2011-04-01, 01:32:04,VALID,998.611,VALID,0,VALID,92.7914,VALID,0,VALID,23.7402,VALID,34,VALID,0.55,
2011-04-01, 01:33:04,VALID,998.616,VALID,0,VALID,92.7762,VALID,0,VALID,23.6994,VALID,34,VALID,0.435156,
2011-04-01, 01:34:04,VALID,998.615,VALID,0,VALID,92.7838,VALID,0,VALID,23.7207,VALID,34,VALID,0.0195313,
2011-04-01, 01:35:04,VALID,998.663,VALID,0,VALID,92.7838,VALID,0,VALID,23.7189,VALID,34,VALID,0,
2011-04-01, 01:36:04,VALID,998.66,VALID,0,VALID,92.7914,VALID,0,VALID,23.7189,VALID,34,VALID,0,
2011-04-01, 01:37:04,VALID,998.654,VALID,0,VALID,92.8067,VALID,0,VALID,23.7597,VALID,34,VALID,0,
2011-04-01, 01:38:04,VALID,998.667,VALID,0,VALID,92.8067,VALID,0,VALID,23.7384,VALID,34,VALID,0,
2011-04-01, 01:39:04,VALID,998.67,VALID,0,VALID,92.8067,VALID,0,VALID,23.7793,VALID,34,VALID,0,
2011-04-01, 01:40:04,VALID,998.662,VALID,0,VALID,92.7991,VALID,0,VALID,23.7579,VALID,37,VALID,0.322656,
2011-04-01, 01:41:04,VALID,998.654,VALID,0,VALID,92.8067,VALID,0,VALID,23.7579,VALID,37,VALID,0.555078,
2011-04-01, 01:42:04,VALID,998.691,VALID,0,VALID,92.7991,VALID,0,VALID,23.7793,VALID,33,VALID,0.596484,
2011-04-01, 01:43:04,VALID,998.689,VALID,0,VALID,92.7914,VALID,0,VALID,23.7775,VALID,31,VALID,0.576172,
2011-04-01, 01:44:04,VALID,998.666,VALID,0,VALID,92.7914,VALID,0,VALID,23.7793,VALID,31,VALID,0.655078,
2011-04-01, 01:45:04,VALID,998.641,VALID,0,VALID,92.8143,VALID,0,VALID,23.7775,VALID,31,VALID,0.632422,
2011-04-01, 01:46:04,VALID,998.626,VALID,0,VALID,92.7914,VALID,0,VALID,23.7988,VALID,31,VALID,0.66875,
2011-04-01, 01:47:04,VALID,998.634,VALID,0,VALID,92.7762,VALID,0,VALID,23.7988,VALID,31,VALID,0.335156,
2011-04-01, 01:48:04,VALID,998.631,VALID,0,VALID,92.7838,VALID,0,VALID,23.797,VALID,31,VALID,0.200391,
2011-04-01, 01:49:04,VALID,998.652,VALID,0,VALID,92.7685,VALID,0,VALID,23.7775,VALID,31,VALID,0,
2011-04-01, 01:50:04,VALID,998.666,VALID,0,VALID,92.7762,VALID,0,VALID,23.8183,VALID,31,VALID,0,
2011-04-01, 01:51:04,VALID,998.636,VALID,0,VALID,92.7762,VALID,0,VALID,23.797,VALID,31,VALID,0,
2011-04-01, 01:52:04,VALID,998.636,VALID,0,VALID,92.7685,VALID,0,VALID,23.8183,VALID,31,VALID,0,
2011-04-01, 01:53:04,VALID,998.635,VALID,0,VALID,92.7762,VALID,0,VALID,23.8183,VALID,31,VALID,0,
2011-04-01, 01:54:04,VALID,998.639,VALID,0,VALID,92.7457,VALID,0,VALID,23.8183,VALID,31,VALID,0,
2011-04-01, 01:55:04,VALID,998.626,VALID,0,VALID,92.7304,VALID,0,VALID,23.8183,VALID,31,VALID,0,
2011-04-01, 01:56:04,VALID,998.665,VALID,0,VALID,92.7228,VALID,0,VALID,23.797,VALID,31,VALID,0,
2011-04-01, 01:57:04,VALID,998.652,VALID,0,VALID,92.6923,VALID,0,VALID,23.8165,VALID,309,VALID,0,
2011-04-01, 01:58:04,VALID,998.627,VALID,0,VALID,92.6999,VALID,0,VALID,23.8573,VALID,309,VALID,0,
2011-04-01, 01:59:04,VALID,998.601,VALID,0,VALID,92.6999,VALID,0,VALID,23.8165,VALID,17,VALID,0,
2011-04-01, 02:00:04,VALID,998.571,VALID,0,VALID,92.6541,VALID,0,VALID,23.8378,VALID,17,VALID,0,
2011-04-01, 02:01:04,VALID,998.562,VALID,0,VALID,92.6236,VALID,0,VALID,23.797,VALID,17,VALID,0,
2011-04-01, 02:02:04,VALID,998.546,VALID,0,VALID,92.6083,VALID,0,VALID,23.8183,VALID,17,VALID,0,
2011-04-01, 02:03:04,VALID,998.539,VALID,0,VALID,92.5702,VALID,0,VALID,23.797,VALID,17,VALID,0,
2011-04-01, 02:04:04,VALID,998.549,VALID,0,VALID,92.5626,VALID,0,VALID,23.7988,VALID,17,VALID,0,
2011-04-01, 02:05:04,VALID,998.564,VALID,0,VALID,92.5244,VALID,0,VALID,23.7988,VALID,17,VALID,0,
2011-04-01, 02:06:04,VALID,998.539,VALID,0,VALID,92.5091,VALID,0,VALID,23.7988,VALID,17,VALID,0,
2011-04-01, 02:07:04,VALID,998.515,VALID,0,VALID,92.4939,VALID,0,VALID,23.7793,VALID,17,VALID,0,
2011-04-01, 02:08:04,VALID,998.512,VALID,0,VALID,92.4557,VALID,0,VALID,23.7597,VALID,17,VALID,0,
2011-04-01, 02:09:04,VALID,998.533,VALID,0,VALID,92.4405,VALID,0,VALID,23.7384,VALID,17,VALID,0,
2011-04-01, 02:10:04,VALID,998.53,VALID,0,VALID,92.4252,VALID,0,VALID,23.7579,VALID,17,VALID,0,
2011-04-01, 02:11:04,VALID,998.525,VALID,0,VALID,92.4023,VALID,0,VALID,23.7597,VALID,17,VALID,0,
2011-04-01, 02:12:04,VALID,998.53,VALID,0,VALID,92.41,VALID,0,VALID,23.7579,VALID,17,VALID,0,
2011-04-01, 02:13:04,VALID,998.513,VALID,0,VALID,92.4252,VALID,0,VALID,23.7793,VALID,17,VALID,0,
2011-04-01, 02:14:04,VALID,998.496,VALID,0,VALID,92.4176,VALID,0,VALID,23.7597,VALID,17,VALID,0,
2011-04-01, 02:15:04,VALID,998.476,VALID,0,VALID,92.4023,VALID,0,VALID,23.7384,VALID,17,VALID,0,
2011-04-01, 02:16:04,VALID,998.477,VALID,0,VALID,92.41,VALID,0,VALID,23.7402,VALID,17,VALID,0,
2011-04-01, 02:17:04,VALID,998.442,VALID,0,VALID,92.4023,VALID,0,VALID,23.7597,VALID,17,VALID,0,
2011-04-01, 02:18:04,VALID,998.398,VALID,0,VALID,92.3794,VALID,0,VALID,23.7207,VALID,17,VALID,0,
2011-04-01, 02:19:04,VALID,998.418,VALID,0,VALID,92.3871,VALID,0,VALID,23.7207,VALID,17,VALID,0,
2011-04-01, 02:20:04,VALID,998.373,VALID,0,VALID,92.3871,VALID,0,VALID,23.7012,VALID,17,VALID,0,
2011-04-01, 02:21:04,VALID,998.369,VALID,0,VALID,92.3718,VALID,0,VALID,23.7012,VALID,17,VALID,0,
2011-04-01, 02:22:04,VALID,998.303,VALID,0,VALID,92.3718,VALID,0,VALID,23.6799,VALID,17,VALID,0,
2011-04-01, 02:23:04,VALID,998.317,VALID,0,VALID,92.3871,VALID,0,VALID,23.7012,VALID,17,VALID,0,
2011-04-01, 02:24:04,VALID,998.319,VALID,0,VALID,92.4023,VALID,0,VALID,23.6817,VALID,17,VALID,0,
2011-04-01, 02:25:04,VALID,998.303,VALID,0,VALID,92.4252,VALID,0,VALID,23.6622,VALID,17,VALID,0,
2011-04-01, 02:26:04,VALID,998.286,VALID,0,VALID,92.4481,VALID,0,VALID,23.6604,VALID,17,VALID,0,
2011-04-01, 02:27:04,VALID,998.33,VALID,0,VALID,92.4557,VALID,0,VALID,23.6622,VALID,17,VALID,0,
2011-04-01, 02:28:04,VALID,998.305,VALID,0,VALID,92.4786,VALID,0,VALID,23.6817,VALID,17,VALID,0,
2011-04-01, 02:29:04,VALID,998.264,VALID,0,VALID,92.4786,VALID,0,VALID,23.6214,VALID,17,VALID,0,
2011-04-01, 02:30:04,VALID,998.271,VALID,0,VALID,92.5091,VALID,0,VALID,23.6214,VALID,17,VALID,0,
2011-04-01, 02:31:04,VALID,998.267,VALID,0,VALID,92.5397,VALID,0,VALID,23.6214,VALID,36,VALID,0.951172,
2011-04-01, 02:32:04,VALID,998.226,VALID,0,VALID,92.5549,VALID,0,VALID,23.6409,VALID,48,VALID,0.811328,
2011-04-01, 02:33:04,VALID,998.209,VALID,0,VALID,92.5626,VALID,0,VALID,23.6622,VALID,48,VALID,0.525391,
2011-04-01, 02:34:04,VALID,998.235,VALID,0,VALID,92.5931,VALID,0.112286,VALID,23.6409,VALID,48,VALID,0.714063,
2011-04-01, 02:35:04,VALID,998.178,VALID,0,VALID,92.5854,VALID,0,VALID,23.6409,VALID,59,VALID,0.672656,
2011-04-01, 02:36:04,VALID,998.19,VALID,0,VALID,92.6236,VALID,0,VALID,23.6409,VALID,69,VALID,0.525781,
2011-04-01, 02:37:04,VALID,998.145,VALID,0,VALID,92.6388,VALID,0.112286,VALID,23.6019,VALID,70,VALID,0,
2011-04-01, 02:38:04,VALID,998.149,VALID,0,VALID,92.6465,VALID,0,VALID,23.5823,VALID,70,VALID,0,
2011-04-01, 02:39:04,VALID,998.13,VALID,0,VALID,92.6388,VALID,0,VALID,23.5823,VALID,70,VALID,0,
2011-04-01, 02:40:04,VALID,998.101,VALID,0,VALID,92.6541,VALID,0,VALID,23.5841,VALID,70,VALID,0,
2011-04-01, 02:41:04,VALID,998.112,VALID,0,VALID,92.677,VALID,0,VALID,23.5841,VALID,70,VALID,0,
2011-04-01, 02:42:04,VALID,998.135,VALID,0,VALID,92.6617,VALID,0,VALID,23.6036,VALID,70,VALID,0,
2011-04-01, 02:43:04,VALID,998.13,VALID,0,VALID,92.7075,VALID,0,VALID,23.6036,VALID,70,VALID,0,
2011-04-01, 02:44:04,VALID,998.153,VALID,0,VALID,92.7075,VALID,0,VALID,23.6036,VALID,70,VALID,0,
2011-04-01, 02:45:04,VALID,998.162,VALID,0,VALID,92.7151,VALID,0,VALID,23.6019,VALID,70,VALID,0,
2011-04-01, 02:46:04,VALID,998.202,VALID,0,VALID,92.738,VALID,0,VALID,23.5823,VALID,70,VALID,0,
2011-04-01, 02:47:04,VALID,998.188,VALID,0,VALID,92.7304,VALID,0,VALID,23.5823,VALID,70,VALID,0,
2011-04-01, 02:48:04,VALID,998.174,VALID,0,VALID,92.7533,VALID,0,VALID,23.5628,VALID,51,VALID,0,
2011-04-01, 02:49:04,VALID,998.18,VALID,0,VALID,92.7457,VALID,0,VALID,23.5841,VALID,41,VALID,0,
2011-04-01, 02:50:04,VALID,998.203,VALID,0,VALID,92.7533,VALID,0,VALID,23.5628,VALID,41,VALID,0,
2011-04-01, 02:51:04,VALID,998.17,VALID,0,VALID,92.7533,VALID,0,VALID,23.5646,VALID,41,VALID,0.284375,
2011-04-01, 02:52:04,VALID,998.141,VALID,0,VALID,92.7838,VALID,0,VALID,23.5628,VALID,57,VALID,0.721484,
2011-04-01, 02:53:04,VALID,998.181,VALID,0,VALID,92.7991,VALID,0,VALID,23.5628,VALID,70,VALID,0.437891,
2011-04-01, 02:54:04,VALID,998.147,VALID,0,VALID,92.7914,VALID,0,VALID,23.5628,VALID,70,VALID,0,
2011-04-01, 02:55:04,VALID,998.155,VALID,0,VALID,92.8143,VALID,0,VALID,23.5628,VALID,70,VALID,0,
2011-04-01, 02:56:04,VALID,998.133,VALID,0,VALID,92.8143,VALID,0,VALID,23.5433,VALID,58,VALID,0.639453,
2011-04-01, 02:57:04,VALID,998.141,VALID,0,VALID,92.8067,VALID,0,VALID,23.5646,VALID,43,VALID,0.676562,
2011-04-01, 02:58:04,VALID,998.11,VALID,0,VALID,92.8143,VALID,0,VALID,23.5238,VALID,43,VALID,0.430859,
2011-04-01, 02:59:04,VALID,998.129,VALID,0,VALID,92.8067,VALID,0,VALID,23.5043,VALID,43,VALID,0,
2011-04-01, 03:00:04,VALID,998.101,VALID,0,VALID,92.8448,VALID,0,VALID,23.5256,VALID,43,VALID,0,
2011-04-01, 03:01:04,VALID,998.082,VALID,0,VALID,92.822,VALID,0,VALID,23.5256,VALID,43,VALID,0,
2011-04-01, 03:02:04,VALID,998.111,VALID,0,VALID,92.8525,VALID,0,VALID,23.4848,VALID,43,VALID,0,
2011-04-01, 03:03:04,VALID,998.084,VALID,0,VALID,92.8296,VALID,0,VALID,23.5043,VALID,43,VALID,0,
2011-04-01, 03:04:04,VALID,998.091,VALID,0,VALID,92.8372,VALID,0,VALID,23.5256,VALID,43,VALID,0,
2011-04-01, 03:05:04,VALID,998.091,VALID,0,VALID,92.8677,VALID,0,VALID,23.5646,VALID,43,VALID,0,
2011-04-01, 03:06:04,VALID,998.09,VALID,0,VALID,92.8677,VALID,0,VALID,23.5433,VALID,47,VALID,0,
2011-04-01, 03:07:04,VALID,998.082,VALID,0,VALID,92.8601,VALID,0,VALID,23.5628,VALID,49,VALID,0,
2011-04-01, 03:08:04,VALID,998.07,VALID,0,VALID,92.8983,VALID,0,VALID,23.5628,VALID,49,VALID,0,
2011-04-01, 03:09:04,VALID,998.102,VALID,0,VALID,92.883,VALID,0,VALID,23.5628,VALID,351,VALID,0.685156,
2011-04-01, 03:10:04,VALID,998.068,VALID,0,VALID,92.8983,VALID,0,VALID,23.6409,VALID,58,VALID,0.751172,
2011-04-01, 03:11:04,VALID,998.074,VALID,0,VALID,92.9211,VALID,0,VALID,23.7012,VALID,62,VALID,0.573047,
2011-04-01, 03:12:04,VALID,998.05,VALID,0,VALID,92.8906,VALID,0,VALID,23.6799,VALID,62,VALID,0.492578,
2011-04-01, 03:13:04,VALID,998.048,VALID,0,VALID,92.883,VALID,0,VALID,23.6604,VALID,62,VALID,0.159375,
2011-04-01, 03:14:04,VALID,998.046,VALID,0,VALID,92.8601,VALID,0,VALID,23.6427,VALID,62,VALID,0,
2011-04-01, 03:15:04,VALID,998.022,VALID,0,VALID,92.8525,VALID,0,VALID,23.6427,VALID,62,VALID,0,
2011-04-01, 03:16:04,VALID,998.009,VALID,0,VALID,92.8296,VALID,0,VALID,23.6409,VALID,62,VALID,0,
2011-04-01, 03:17:04,VALID,998.004,VALID,0,VALID,92.8448,VALID,0,VALID,23.6604,VALID,107,VALID,0.779688,
2011-04-01, 03:18:04,VALID,997.973,VALID,0,VALID,92.8372,VALID,0,VALID,23.6799,VALID,109,VALID,0.69375,
2011-04-01, 03:19:04,VALID,997.998,VALID,0,VALID,92.8067,VALID,0,VALID,23.6994,VALID,109,VALID,0.333203,
2011-04-01, 03:20:04,VALID,997.978,VALID,0,VALID,92.822,VALID,0,VALID,23.6799,VALID,109,VALID,0.206641,
2011-04-01, 03:21:04,VALID,998.022,VALID,0,VALID,92.7914,VALID,0,VALID,23.6799,VALID,109,VALID,0.311328,
2011-04-01, 03:22:04,VALID,998.029,VALID,0,VALID,92.8143,VALID,0,VALID,23.7207,VALID,109,VALID,0,
2011-04-01, 03:23:04,VALID,998.039,VALID,0,VALID,92.7991,VALID,0,VALID,23.6994,VALID,109,VALID,0,
2011-04-01, 03:24:04,VALID,998.042,VALID,0,VALID,92.7838,VALID,0,VALID,23.6994,VALID,109,VALID,0,
2011-04-01, 03:25:04,VALID,998.088,VALID,0,VALID,92.7914,VALID,0,VALID,23.7189,VALID,109,VALID,0,
2011-04-01, 03:26:04,VALID,998.067,VALID,0,VALID,92.7609,VALID,0,VALID,23.6994,VALID,109,VALID,0,
2011-04-01, 03:27:04,VALID,998.087,VALID,0,VALID,92.7685,VALID,0,VALID,23.7189,VALID,109,VALID,0,
2011-04-01, 03:28:04,VALID,998.108,VALID,0,VALID,92.7685,VALID,0,VALID,23.7189,VALID,109,VALID,0,
2011-04-01, 03:29:04,VALID,998.109,VALID,0,VALID,92.7685,VALID,0,VALID,23.7189,VALID,109,VALID,0,
2011-04-01, 03:30:04,VALID,998.114,VALID,0,VALID,92.738,VALID,0,VALID,23.7384,VALID,109,VALID,0,
2011-04-01, 03:31:04,VALID,998.098,VALID,0,VALID,92.7228,VALID,0,VALID,23.7189,VALID,109,VALID,0,
2011-04-01, 03:32:04,VALID,998.06,VALID,0,VALID,92.7304,VALID,0,VALID,23.7189,VALID,109,VALID,0,
2011-04-01, 03:33:04,VALID,998.11,VALID,0,VALID,92.738,VALID,0,VALID,23.7384,VALID,109,VALID,0,
2011-04-01, 03:34:04,VALID,998.107,VALID,0,VALID,92.7228,VALID,0,VALID,23.7384,VALID,109,VALID,0,
2011-04-01, 03:35:04,VALID,998.129,VALID,0,VALID,92.7228,VALID,0,VALID,23.7988,VALID,109,VALID,0,
2011-04-01, 03:36:04,VALID,998.115,VALID,0,VALID,92.7304,VALID,0,VALID,23.7775,VALID,114,VALID,0,
2011-04-01, 03:37:04,VALID,998.116,VALID,0,VALID,92.7304,VALID,0,VALID,23.8183,VALID,114,VALID,0,
2011-04-01, 03:38:04,VALID,998.137,VALID,0,VALID,92.7228,VALID,0,VALID,23.797,VALID,114,VALID,0,
2011-04-01, 03:39:04,VALID,998.119,VALID,0,VALID,92.7228,VALID,0,VALID,23.7775,VALID,114,VALID,0,
2011-04-01, 03:40:04,VALID,998.103,VALID,0,VALID,92.7151,VALID,0,VALID,23.7988,VALID,114,VALID,0,
2011-04-01, 03:41:04,VALID,998.075,VALID,0,VALID,92.6846,VALID,0.112286,VALID,23.7775,VALID,114,VALID,0,
2011-04-01, 03:42:04,VALID,998.074,VALID,0,VALID,92.7075,VALID,0,VALID,23.7579,VALID,114,VALID,0,
2011-04-01, 03:43:04,VALID,998.064,VALID,0,VALID,92.7151,VALID,0,VALID,23.7775,VALID,114,VALID,0,
2011-04-01, 03:44:04,VALID,998.078,VALID,0,VALID,92.6846,VALID,0,VALID,23.7988,VALID,114,VALID,0,
2011-04-01, 03:45:04,VALID,998.076,VALID,0,VALID,92.6846,VALID,0,VALID,23.7775,VALID,114,VALID,0,
2011-04-01, 03:46:04,VALID,998.136,VALID,0,VALID,92.6617,VALID,0,VALID,23.7579,VALID,114,VALID,0,
2011-04-01, 03:47:04,VALID,998.066,VALID,0,VALID,92.6846,VALID,0,VALID,23.7597,VALID,114,VALID,0,
2011-04-01, 03:48:04,VALID,998.084,VALID,0,VALID,92.6617,VALID,0,VALID,23.7597,VALID,114,VALID,0,
2011-04-01, 03:49:04,VALID,998.097,VALID,0,VALID,92.6617,VALID,0,VALID,23.7384,VALID,114,VALID,0,
2011-04-01, 03:50:04,VALID,998.053,VALID,0,VALID,92.6541,VALID,0,VALID,23.7793,VALID,114,VALID,0,
2011-04-01, 03:51:04,VALID,998.06,VALID,0,VALID,92.6846,VALID,0.112286,VALID,23.7579,VALID,114,VALID,0,
2011-04-01, 03:52:04,VALID,998.057,VALID,0,VALID,92.6694,VALID,0,VALID,23.7775,VALID,114,VALID,0,
2011-04-01, 03:53:04,VALID,998.118,VALID,0,VALID,92.6846,VALID,0,VALID,23.7775,VALID,114,VALID,0,
2011-04-01, 03:54:04,VALID,998.136,VALID,0,VALID,92.6617,VALID,0,VALID,23.7579,VALID,16,VALID,0,
2011-04-01, 03:55:04,VALID,998.16,VALID,0,VALID,92.6694,VALID,0,VALID,23.7579,VALID,16,VALID,0,
2011-04-01, 03:56:04,VALID,998.169,VALID,0,VALID,92.6312,VALID,0,VALID,23.7579,VALID,16,VALID,0,
2011-04-01, 03:57:04,VALID,998.134,VALID,0,VALID,92.6388,VALID,0,VALID,23.7384,VALID,16,VALID,0,